SB KEPS @ AMSAT $ORB10294.O Orbital Elements 10294.OSCAR
HR AMSAT ORBITAL ELEMENTS FOR OSCAR SATELLITES FROM WA5QGD FORT WORTH,TX October 21, 2010 BID: ORB10294.O TO ALL RADIO AMATEURS BT
Satellite: AO-07 Catalog number: 07530 Epoch time: 10294.61572409 Element set: 908 Inclination: 101.4002 deg RA of node: 305.5678 deg Eccentricity: 0.0012289 Arg of perigee: 026.5885 deg Mean anomaly: 333.5809 deg Mean motion: 12.53579833 rev/day Decay rate: -2.7e-07 rev/day^2 Epoch rev: 64429 Checksum: 310
Satellite: FO-29 Catalog number: 24278 Epoch time: 10293.97072939 Element set: 0421 Inclination: 098.5174 deg RA of node: 105.7450 deg Eccentricity: 0.0350919 Arg of perigee: 157.4361 deg Mean anomaly: 204.2645 deg Mean motion: 13.52953211 rev/day Decay rate: -4.9e-07 rev/day^2 Epoch rev: 70011 Checksum: 301
Satellite: SO-33 Catalog number: 25509 Epoch time: 10294.83554111 Element set: 819 Inclination: 031.4335 deg RA of node: 152.3083 deg Eccentricity: 0.0354461 Arg of perigee: 317.2235 deg Mean anomaly: 040.1325 deg Mean motion: 14.28332545 rev/day Decay rate: 2.15e-06 rev/day^2 Epoch rev: 62617 Checksum: 268
Satellite: RS-22 Catalog number: 27939 Epoch time: 10294.75064656 Element set: 652 Inclination: 097.8722 deg RA of node: 154.7398 deg Eccentricity: 0.0014075 Arg of perigee: 024.2183 deg Mean anomaly: 335.9680 deg Mean motion: 14.63465633 rev/day Decay rate: 1.98e-06 rev/day^2 Epoch rev: 37746 Checksum: 341
Satellite: VO-52 Catalog number: 28650 Epoch time: 10293.59897281 Element set: 0626 Inclination: 097.6787 deg RA of node: 342.0414 deg Eccentricity: 0.0026056 Arg of perigee: 224.7803 deg Mean anomaly: 135.1292 deg Mean motion: 14.81830800 rev/day Decay rate: 4.91e-06 rev/day^2 Epoch rev: 29526 Checksum: 317
Satellite: SO-67 Catalog number: 35870 Epoch time: 10294.89391402 Element set: 215 Inclination: 097.3175 deg RA of node: 340.5794 deg Eccentricity: 0.0003959 Arg of perigee: 037.4206 deg Mean anomaly: 080.4003 deg Mean motion: 15.21124103 rev/day Decay rate: 1.195e-05 rev/day^2 Epoch rev: 6071 Checksum: 282
Satellite: HO-68 Catalog number: 36122 Epoch time: 10294.80166252 Element set: 775 Inclination: 100.4546 deg RA of node: 353.8620 deg Eccentricity: 0.0007796 Arg of perigee: 050.3099 deg Mean anomaly: 309.8699 deg Mean motion: 13.16282296 rev/day Decay rate: -4.5e-07 rev/day^2 Epoch rev: 4087 Checksum: 319
/EX SB KEPS @ AMSAT $ORB10294.D Orbital Elements 10294.MICROS
HR AMSAT ORBITAL ELEMENTS FOR THE MICROSATS FROM WA5QGD FORT WORTH,TX October 21, 2010 BID: ORB10294.D TO ALL RADIO AMATEURS BT
Satellite: UO-11 Catalog number: 14781 Epoch time: 10293.72140373 Element set: 0370 Inclination: 098.0411 deg RA of node: 345.7379 deg Eccentricity: 0.0008746 Arg of perigee: 186.6321 deg Mean anomaly: 173.4797 deg Mean motion: 14.79847522 rev/day Decay rate: 3.80e-06 rev/day^2 Epoch rev: 43037 Checksum: 313
Satellite: AO-16 Catalog number: 20439 Epoch time: 10294.73969448 Element set: 23 Inclination: 098.3497 deg RA of node: 247.7674 deg Eccentricity: 0.0011334 Arg of perigee: 146.5445 deg Mean anomaly: 213.6456 deg Mean motion: 14.31879169 rev/day Decay rate: 4.5e-07 rev/day^2 Epoch rev: 8349 Checksum: 334
Satellite: LO-19 Catalog number: 20442 Epoch time: 10293.59928732 Element set: 0934 Inclination: 098.3113 deg RA of node: 251.9682 deg Eccentricity: 0.0012636 Arg of perigee: 145.1045 deg Mean anomaly: 215.0959 deg Mean motion: 14.32108814 rev/day Decay rate: 1.66e-06 rev/day^2 Epoch rev: 08350 Checksum: 296
Satellite: AO-27 Catalog number: 22825 Epoch time: 10294.86053582 Element set: 655 Inclination: 098.4990 deg RA of node: 239.6144 deg Eccentricity: 0.0007511 Arg of perigee: 256.7458 deg Mean anomaly: 103.2885 deg Mean motion: 14.29312682 rev/day Decay rate: 6.5e-07 rev/day^2 Epoch rev: 89014 Checksum: 325
Satellite: IO-26 Catalog number: 22826 Epoch time: 10294.83326315 Element set: 393 Inclination: 098.4937 deg RA of node: 240.1431 deg Eccentricity: 0.0008032 Arg of perigee: 250.7703 deg Mean anomaly: 109.2610 deg Mean motion: 14.29570442 rev/day Decay rate: 5.6e-07 rev/day^2 Epoch rev: 89025 Checksum: 285
Satellite: GO-32 Catalog number: 25397 Epoch time: 10294.65028664 Element set: 312 Inclination: 098.3175 deg RA of node: 295.1599 deg Eccentricity: 0.0000465 Arg of perigee: 206.6393 deg Mean anomaly: 153.4759 deg Mean motion: 14.23186631 rev/day Decay rate: -1.62e-06 rev/day^2 Epoch rev: 63803 Checksum: 316
Satellite: NO-44 Catalog number: 26931 Epoch time: 10294.83189750 Element set: 587 Inclination: 067.0523 deg RA of node: 237.6751 deg Eccentricity: 0.0005563 Arg of perigee: 271.0936 deg Mean anomaly: 088.9531 deg Mean motion: 14.29616862 rev/day Decay rate: 4.5e-07 rev/day^2 Epoch rev: 47285 Checksum: 332
Satellite: SO-50 Catalog number: 27607 Epoch time: 10294.61489588 Element set: 298 Inclination: 064.5597 deg RA of node: 332.4930 deg Eccentricity: 0.0044667 Arg of perigee: 024.2495 deg Mean anomaly: 336.0703 deg Mean motion: 14.71590704 rev/day Decay rate: 1.06e-06 rev/day^2 Epoch rev: 42098 Checksum: 324
Satellite: CO-55 Catalog number: 27844 Epoch time: 10294.58079738 Element set: 961 Inclination: 098.7105 deg RA of node: 301.7520 deg Eccentricity: 0.0009692 Arg of perigee: 161.8535 deg Mean anomaly: 198.2990 deg Mean motion: 14.20738466 rev/day Decay rate: 8.6e-07 rev/day^2 Epoch rev: 37903 Checksum: 343
Satellite: CO-57 Catalog number: 27848 Epoch time: 10293.57238946 Element set: 0908 Inclination: 098.7160 deg RA of node: 299.8773 deg Eccentricity: 0.0009456 Arg of perigee: 169.6967 deg Mean anomaly: 190.4411 deg Mean motion: 14.20527722 rev/day Decay rate: 5.4e-07 rev/day^2 Epoch rev: 37884 Checksum: 363
Satellite: AO-51 Catalog number: 28375 Epoch time: 10293.50899946 Element set: 0804 Inclination: 098.0731 deg RA of node: 279.9455 deg Eccentricity: 0.0085015 Arg of perigee: 076.7291 deg Mean anomaly: 284.3368 deg Mean motion: 14.40703957 rev/day Decay rate: 3.8e-07 rev/day^2 Epoch rev: 33155 Checksum: 341
Satellite: GENESAT1 Catalog number: 29655 Epoch time: 10216.61700559 Element set: 226 Inclination: 040.0059 deg RA of node: 067.3006 deg Eccentricity: 0.0005079 Arg of perigee: 297.8744 deg Mean anomaly: 064.7087 deg Mean motion: 16.44862838 rev/day Decay rate: 1.0637092e-01 rev/day^2 Epoch rev: 20777 Checksum: 320
Satellite: CP3 Catalog number: 31129 Epoch time: 10293.54031115 Element set: 0703 Inclination: 097.9280 deg RA of node: 326.3275 deg Eccentricity: 0.0101736 Arg of perigee: 204.2901 deg Mean anomaly: 155.3473 deg Mean motion: 14.52318955 rev/day Decay rate: 8.3e-07 rev/day^2 Epoch rev: 18605 Checksum: 275
Satellite: CO-65 Catalog number: 32785 Epoch time: 10293.23249709 Element set: 0816 Inclination: 097.8828 deg RA of node: 356.3374 deg Eccentricity: 0.0014028 Arg of perigee: 235.5225 deg Mean anomaly: 124.4648 deg Mean motion: 14.81741754 rev/day Decay rate: 6.88e-06 rev/day^2 Epoch rev: 13400 Checksum: 325
Satellite: KKS-1 Catalog number: 33493 Epoch time: 10294.65840673 Element set: 964 Inclination: 098.0992 deg RA of node: 055.3402 deg Eccentricity: 0.0021171 Arg of perigee: 092.0850 deg Mean anomaly: 268.2792 deg Mean motion: 14.81155992 rev/day Decay rate: 8.63e-06 rev/day^2 Epoch rev: 9420 Checksum: 312
Satellite: SOHLA-1 Catalog number: 33496 Epoch time: 10294.87784542 Element set: 235 Inclination: 098.0674 deg RA of node: 042.3729 deg Eccentricity: 0.0007088 Arg of perigee: 152.5889 deg Mean anomaly: 207.5708 deg Mean motion: 14.69524879 rev/day Decay rate: 1.8e-07 rev/day^2 Epoch rev: 9348 Checksum: 347
Satellite: TISAT-1 Catalog number: 36799 Epoch time: 10294.67159780 Element set: 238 Inclination: 098.1350 deg RA of node: 355.2346 deg Eccentricity: 0.0014942 Arg of perigee: 331.9912 deg Mean anomaly: 028.0506 deg Mean motion: 14.80201271 rev/day Decay rate: 5.05e-06 rev/day^2 Epoch rev: 1502 Checksum: 284
Satellite: STUDSAT Catalog number: 36801 Epoch time: 10293.76171783 Element set: 0113 Inclination: 098.1363 deg RA of node: 354.2225 deg Eccentricity: 0.0013689 Arg of perigee: 322.8011 deg Mean anomaly: 037.2250 deg Mean motion: 14.79727718 rev/day Decay rate: 1.414e-05 rev/day^2 Epoch rev: 01488 Checksum: 286
/EX SB KEPS @ AMSAT $ORB10294.W Orbital Elements 10294.WEATHER
HR AMSAT ORBITAL ELEMENTS FOR WEATHER SATELLITES FROM WA5QGD FORT WORTH,TX October 21, 2010 BID: ORB10294.W TO ALL RADIO AMATEURS BT
Satellite: NOAA-10 Catalog number: 16969 Epoch time: 10293.69507531 Element set: 0247 Inclination: 098.6474 deg RA of node: 321.4253 deg Eccentricity: 0.0011667 Arg of perigee: 202.4342 deg Mean anomaly: 157.6331 deg Mean motion: 14.27430434 rev/day Decay rate: 2.6e-07 rev/day^2 Epoch rev: 25348 Checksum: 291
Satellite: NOAA-11 Catalog number: 19531 Epoch time: 10293.75819318 Element set: 0256 Inclination: 098.7663 deg RA of node: 020.6238 deg Eccentricity: 0.0011635 Arg of perigee: 146.0071 deg Mean anomaly: 214.1852 deg Mean motion: 14.14937989 rev/day Decay rate: -2.29e-06 rev/day^2 Epoch rev: 13889 Checksum: 317
Satellite: NOAA-12 Catalog number: 21263 Epoch time: 10294.75096360 Element set: 751 Inclination: 098.7643 deg RA of node: 307.8895 deg Eccentricity: 0.0012670 Arg of perigee: 155.5984 deg Mean anomaly: 204.6284 deg Mean motion: 14.25661100 rev/day Decay rate: 1.16e-06 rev/day^2 Epoch rev: 1048 Checksum: 295
Satellite: MET-3/5 Catalog number: 21655 Epoch time: 10293.83265430 Element set: 0945 Inclination: 082.5587 deg RA of node: 219.8536 deg Eccentricity: 0.0014747 Arg of perigee: 038.8996 deg Mean anomaly: 321.3192 deg Mean motion: 13.17027324 rev/day Decay rate: 5.1e-07 rev/day^2 Epoch rev: 92221 Checksum: 310
Satellite: MET-2/21 Catalog number: 22782 Epoch time: 10293.90007598 Element set: 0918 Inclination: 082.5479 deg RA of node: 152.7261 deg Eccentricity: 0.0023586 Arg of perigee: 052.3379 deg Mean anomaly: 307.9914 deg Mean motion: 13.83648882 rev/day Decay rate: -4.0e-08 rev/day^2 Epoch rev: 86546 Checksum: 339
